Flag for Canada Weather past 2 weeks in Burnaby, British Columbia, Canada

Now
61 °F

Passing clouds.


Feels Like: 61 °F
Forecast: 59 / 75 °F
Wind: 15 mph from Northwest

Location: Vancouver International Air-Port

Current Time: Aug 4, 2015 at 5:23:28 AM

Latest Report: Aug 4, 2015 at 5:00 AM


Visibility: 20 mi

Pressure: 29.94 "Hg

Humidity: 83%

Dew point: 55 °F

Location of BurnabyLocation

Historic Weather in Burnaby — Graph

°F

Burnaby temperature yesterday

Maximum temperature yesterday: 73 °F (at 12:00 PM)
Minimum temperature yesterday: 59 °F (at 5:00 AM)
Average temperature yesterday: 67 °F

Past Weeks' High & Low Weather Summary

 TemperatureHumidityPressure
High79 °F (Jul 30, 2:00 PM)94% (Jul 24, 10:00 AM)30.28 "Hg (Jul 24, 10:00 AM)
Low55 °F (Jul 27, 3:00 AM)46% (Jul 21, 7:00 PM)29.85 "Hg (Aug 3, 3:00 AM)
Average66 °F73%30.01 "Hg
* Reported Jul 20 4:00 AM — Aug 4 4:00 AM, Burnaby, Weather by CustomWeather, © 2015

Note: Actual official high and low records may vary slightly from our data, if they occured in-between our weather recording intervals... More about our weather records

Advertising

Burnaby weather history for previous 24 hours

 ConditionsComfort  
Time TempWeatherWind HumidityBarometerVisibility
4:00 AM
Tue, Aug 4
63 °FPassing clouds.20 mph77%29.93 "Hg20 mi
3:00 AM63 °FPassing clouds.16 mph77%29.93 "Hg20 mi
2:00 AM64 °FPassing clouds.16 mph73%29.93 "Hg20 mi
1:00 AM64 °FPassing clouds.14 mph83%29.92 "Hg20 mi
12:00 AM64 °FPassing clouds.9 mph83%29.91 "Hg20 mi
11:00 PM
Mon, Aug 3
66 °FPassing clouds.12 mph78%29.90 "Hg20 mi
10:00 PM66 °FPassing clouds.12 mph73%29.89 "Hg20 mi
9:00 PM66 °FPassing clouds.6 mph73%29.88 "Hg30 mi
8:00 PM68 °FPassing clouds.5 mph78%29.88 "Hg30 mi
7:00 PM70 °FBroken clouds.7 mph73%29.87 "Hg30 mi
6:00 PM70 °FBroken clouds.5 mph69%29.88 "Hg30 mi
5:00 PM72 °FScattered clouds.9 mph69%29.88 "Hg30 mi
4:00 PM72 °FScattered clouds.10 mph69%29.88 "Hg30 mi
3:00 PM72 °FPassing clouds.12 mph65%29.88 "Hg30 mi
2:00 PM72 °FScattered clouds.10 mph69%29.89 "Hg30 mi
1:00 PM70 °FScattered clouds.10 mph73%29.88 "Hg30 mi
12:00 PM73 °FPartly sunny.7 mph57%29.89 "Hg30 mi
11:00 AM70 °FScattered clouds.12 mph60%29.90 "Hg30 mi
10:00 AM68 °FScattered clouds.10 mph69%29.89 "Hg30 mi
9:00 AM66 °FScattered clouds.9 mph68%29.89 "Hg30 mi
8:00 AM64 °FPartly sunny.12 mph73%29.88 "Hg30 mi
7:00 AM61 °FScattered clouds.10 mph83%29.87 "Hg30 mi
6:00 AM59 °FPassing clouds.9 mph82%29.87 "Hg30 mi
5:00 AM59 °FPassing clouds.7 mph82%29.86 "Hg20 mi
Weather by CustomWeather, © 2015

See weather overviewHow to use our weather pages